Voltar ao catálogo

STARLINK-34781

AtivoComunicaçõesSSO
NORAD 65073·PAYLOAD·🇺🇸 United States

Lançado Jul 31, 2025 de Vandenberg Space Force Base

Loading…

Próximas Passagens (próximas 24 horas)

TLE

AtualizadoSource: CelesTrak SupGP

Época: Sep 14, 2026, 14:40 UTC

1 65073C 25165T   26257.61159722  .02247900  00000+0  11686+0 0  2576
2 65073  97.2844 328.9522 0001695  96.8537 318.6831 15.15024080    14

Acompanhe STARLINK-34781 em tempo real com AllMySat

Download on the App Store